Flag for Poland Weather past 2 weeks in Poznan, Poland

52 °F


Feels Like: 49 °F
Forecast: 36 / 48 °F
Wind: 9 mph from East

Location: Poznan Airport

Current Time: Oct 9, 2015 at 3:16:26 PM

Latest Report: Oct 9, 2015 at 3:00 PM

Visibility: 10 mi

Pressure: 30.24 "Hg

Humidity: 28%

Dew point: 19 °F

Location of PoznanLocation

Historic Weather in Poznan — Graph


Poznan temperature yesterday

Maximum temperature yesterday: 55 °F (at 2:00 PM)
Minimum temperature yesterday: 39 °F (at 7:00 AM)
Average temperature yesterday: 46 °F

Past Weeks' High & Low Weather Summary

High70 °F (Sep 24, 4:00 PM)100% (Sep 26, 4:00 AM)30.66 "Hg (Sep 26, 4:00 AM)
Low34 °F (Oct 1, 4:30 AM)28% (Oct 9, 1:30 PM)29.89 "Hg (Oct 6, 4:00 PM)
Average52 °F68%30.24 "Hg
* Reported Sep 24 2:00 PM — Oct 9 2:00 PM, Poznan, Weather by CustomWeather, © 2015

Note: Actual official high and low records may vary slightly from our data, if they occured in-between our weather recording intervals... More about our weather records


Poznan weather history for previous 24 hours

Time TempWeatherWind HumidityBarometerVisibility
2:00 PM
Fri, Oct 9
52 °FSunny.15 mph28%30.24 "Hg10 mi
1:30 PM52 °FSunny.13 mph28%30.24 "Hg10 mi
1:00 PM50 °FSunny.14 mph32%30.24 "Hg10 mi
12:30 PM48 °FSunny.13 mph34%30.24 "Hg10 mi
12:00 PM46 °FSunny.9 mph40%30.24 "Hg10 mi
11:30 AM45 °FSunny.10 mph42%30.24 "Hg10 mi
11:00 AM43 °FSunny.9 mph49%30.24 "Hg10 mi
10:30 AM41 °FSunny.7 mph53%30.24 "Hg10 mi
10:00 AM41 °FSunny.8 mph53%30.24 "Hg10 mi
9:30 AM39 °FSunny.9 mph56%30.24 "Hg10 mi
9:00 AM37 °FSunny.8 mph60%30.24 "Hg10 mi
8:30 AM37 °FSunny.8 mph60%30.24 "Hg10 mi
8:00 AM36 °FClear.9 mph65%30.21 "Hg10 mi
7:30 AM37 °FClear.9 mph60%30.21 "Hg10 mi
7:00 AM36 °FClear.8 mph65%30.21 "Hg10 mi
6:30 AM36 °FClear.8 mph65%30.21 "Hg10 mi
5:30 AM36 °FClear.5 mph65%30.21 "Hg10 mi
5:00 AM36 °FClear.6 mph65%30.21 "Hg10 mi
4:30 AM37 °FClear.5 mph60%30.21 "Hg10 mi
4:00 AM37 °FClear.6 mph60%30.21 "Hg10 mi
3:30 AM37 °FClear.7 mph60%30.18 "Hg10 mi
3:00 AM39 °FClear.7 mph56%30.18 "Hg10 mi
2:30 AM39 °FClear.7 mph56%30.18 "Hg10 mi
2:00 AM39 °FClear.7 mph56%30.18 "Hg10 mi
1:30 AM39 °FClear.7 mph56%30.18 "Hg10 mi
1:00 AM39 °FClear.9 mph56%30.18 "Hg10 mi
12:30 AM39 °FClear.9 mph56%30.18 "Hg10 mi
12:00 AM39 °FClear.9 mph56%30.18 "Hg10 mi
11:30 PM
Thu, Oct 8
39 °FClear.9 mph56%30.18 "Hg10 mi
11:00 PM41 °FClear.8 mph57%30.18 "Hg10 mi
10:30 PM41 °FClear.9 mph57%30.18 "Hg10 mi
10:00 PM43 °FClear.10 mph53%30.18 "Hg10 mi
9:30 PM43 °FClear.8 mph53%30.18 "Hg10 mi
9:00 PM43 °FClear.8 mph53%30.18 "Hg10 mi
8:30 PM43 °FClear.6 mph57%30.15 "Hg10 mi
8:00 PM45 °FClear.7 mph53%30.15 "Hg10 mi
7:30 PM46 °FClear.7 mph50%30.15 "Hg10 mi
7:00 PM46 °FSunny.7 mph46%30.15 "Hg10 mi
6:30 PM48 °FSunny.8 mph43%30.15 "Hg10 mi
6:00 PM50 °FSunny.12 mph40%30.15 "Hg10 mi
5:30 PM52 °FSunny.15 mph41%30.12 "Hg10 mi
5:00 PM54 °FSunny.13 mph38%30.12 "Hg10 mi
4:30 PM55 °FSunny.14 mph36%30.12 "Hg10 mi
4:00 PM55 °FSunny.15 mph36%30.12 "Hg10 mi
3:30 PM55 °FSunny.14 mph36%30.12 "Hg10 mi
3:00 PM55 °FSunny.14 mph36%30.12 "Hg10 mi
Weather by CustomWeather, © 2015

See weather overviewHow to use our weather pages